Regional Weather Roundup
Issued by NWS Cleveland, OH

Home | Current Version | Previous Version | Text Only | Print | Product List | Glossary On
Versions: 1 2 3 4 5 6 7 8 9 10 11 12 13 14 15 16 17 18 19 20 21 22 23 24 25 26 27 28 29 30 31 32 33 34 35 36 37 38 39 40 41 42 43 44 45 46 47 48 49 50
000
ASUS41 KCLE 171912
RWRCLE
OHIO REGIONAL WEATHER ROUNDUP
NATIONAL WEATHER SERVICE WILMINGTON, OH
300 PM EDT TUE OCT 17 2017

NOTE: "FAIR" INDICATES FEW OR NO CLOUDS BELOW 12,000 FEET WITH NO
SIGNIFICANT WEATHER AND/OR OBSTRUCTIONS TO VISIBILITY.

OHZ001>008-015>018-024>027-034-035-043-044-172000-
   NORTHWEST OHIO

CITY           SKY/WX    TMP DP  RH WIND       PRES   REMARKS
DEFIANCE       FAIR      67  38  34 W8G17     30.22F
FINDLAY        FAIR      67  38  34 SW16G23   30.23F
TOLEDO EXPRESS FAIR      68  41  37 SW17G28   30.21F
TOLEDO EXEC    FAIR      67  40  37 SW16G26   30.21F
LIMA           FAIR      65  39  38 SW15      30.24F HAZE
$$

OHZ009>014-019>023-028>033-038-089-172000-
   NORTHEAST OHIO

CITY           SKY/WX    TMP DP  RH WIND       PRES   REMARKS
CLE-HOPKINS    FAIR      66  39  37 SW12G23   30.24F
CLE-LAKEFRONT  FAIR      66  38  35 SW13      30.21F
CUY CO. ARPT   MOSUNNY   66  37  34 SW17      30.23F
LORAIN-ELYRIA  FAIR      66  35  31 W13G24    30.23F
ASHTABULA      FAIR      64  38  38 W13       30.22F
AKRON-CANTON   FAIR      64  38  38 SW16      30.25F
WOOSTER        FAIR      65  37  35 SW14G20   30.26F
MANSFIELD      FAIR      64  38  38 SW16G25   30.26F
YOUNGSTOWN     FAIR      63  38  39 SW10      30.24F
$$

OHZ042-051>053-060>062-070>072-077>081-172000-
  SOUTHWEST OHIO

CITY           SKY/WX    TMP DP  RH WIND       PRES   REMARKS
CINC-COVINGTON FAIR      64  42  44 S8        30.29F
CINC-LUNKEN    FAIR      66  42  41 S9        30.30F
HAMILTON       FAIR      67  40  37 S7        30.30F
DAYTON         FAIR      64  41  42 S14       30.28F
WRIGHT-PAT AFB FAIR      65  35  32 SW12      30.28F
DAYTON GENERAL FAIR      63  37  38 SW9       30.28F
WILMINGTON     FAIR      64  40  41 SW6       30.28F
$$

OHZ036-037-039>041-045>050-054>059-063>069-073>076-082>088-172000-
  CENTRAL AND SOUTHEAST OHIO

CITY           SKY/WX    TMP DP  RH WIND       PRES   REMARKS
COLUMBUS       FAIR      65  39  38 SW8       30.28F
OSU AIRPORT    FAIR      65  39  38 W8        30.28F
BOLTON FIELD   SUNNY     64  39  39 SW12G18   30.29F
RICKENBACK AFB FAIR      65  39  39 S13       30.28F
NEWARK         FAIR      66  38  35 S8        30.28F
MARION         FAIR      65  37  35 SW17G23   30.26F
LANCASTER      FAIR      64  41  42 VRB6      30.30F
ZANESVILLE     FAIR      64  38  38 SW8G16    30.29F
NEW PHILLY     FAIR      64  39  39 SW10      30.28F
$$



USA.gov is the U.S. government's official web portal to all federal, state and local government web resources and services.